Year,Month,Day,Hour,Minute,Value (Times are PST for temperature in C)
2014,07,13,00,00,19.20
2014,07,13,00,01,19.10
2014,07,13,00,02,19.10
2014,07,13,00,03,19.10
2014,07,13,00,04,19.10
2014,07,13,00,05,19.10
2014,07,13,00,06,19.00
2014,07,13,00,07,19.00
2014,07,13,00,08,19.00
2014,07,13,00,09,18.90
2014,07,13,00,10,18.90
2014,07,13,00,11,18.90
2014,07,13,00,12,18.90
2014,07,13,00,13,18.80
2014,07,13,00,14,18.80
2014,07,13,00,15,18.80
2014,07,13,00,16,18.80
2014,07,13,00,17,18.80
2014,07,13,00,18,18.70
2014,07,13,00,19,18.70
2014,07,13,00,20,18.60
2014,07,13,00,21,18.60
2014,07,13,00,22,18.50
2014,07,13,00,23,18.50
2014,07,13,00,24,18.40
2014,07,13,00,25,18.40
2014,07,13,00,26,18.40
2014,07,13,00,27,18.40
2014,07,13,00,28,18.30
2014,07,13,00,29,18.30
2014,07,13,00,30,18.30
2014,07,13,00,31,18.30
2014,07,13,00,32,18.30
2014,07,13,00,33,18.30
2014,07,13,00,34,18.30
2014,07,13,00,35,18.30
2014,07,13,00,36,18.30
2014,07,13,00,37,18.30
2014,07,13,00,38,18.30
2014,07,13,00,39,18.30
2014,07,13,00,40,18.30
2014,07,13,00,41,18.30
2014,07,13,00,42,18.30
2014,07,13,00,43,18.30
2014,07,13,00,44,18.30
2014,07,13,00,45,18.30
2014,07,13,00,46,18.30
2014,07,13,00,47,18.30
2014,07,13,00,48,18.30
2014,07,13,00,49,18.30
2014,07,13,00,50,18.30
2014,07,13,00,51,18.30
2014,07,13,00,52,18.30
2014,07,13,00,53,18.30
2014,07,13,00,54,18.30
2014,07,13,00,55,18.30
2014,07,13,00,56,18.30
2014,07,13,00,57,18.30
2014,07,13,00,58,18.30
2014,07,13,00,59,18.20
2014,07,13,01,00,18.20
2014,07,13,01,01,18.10
2014,07,13,01,02,18.00
2014,07,13,01,03,18.00
2014,07,13,01,04,17.90
2014,07,13,01,05,17.80
2014,07,13,01,06,17.70
2014,07,13,01,07,17.70
2014,07,13,01,08,17.70
2014,07,13,01,09,17.60
2014,07,13,01,10,17.60
2014,07,13,01,11,17.60
2014,07,13,01,12,17.50
2014,07,13,01,13,17.50
2014,07,13,01,14,17.40
2014,07,13,01,15,17.40
2014,07,13,01,16,17.30
2014,07,13,01,17,17.30
2014,07,13,01,18,17.20
2014,07,13,01,19,17.20
2014,07,13,01,20,17.10
2014,07,13,01,21,17.10
2014,07,13,01,22,17.00
2014,07,13,01,23,17.00
2014,07,13,01,24,16.90
2014,07,13,01,25,16.90
2014,07,13,01,26,16.80
2014,07,13,01,27,16.80
2014,07,13,01,28,16.70
2014,07,13,01,29,16.70
2014,07,13,01,30,16.70
2014,07,13,01,31,16.60
2014,07,13,01,32,16.60
2014,07,13,01,33,16.60
2014,07,13,01,34,16.60
2014,07,13,01,35,16.60
2014,07,13,01,36,16.60
2014,07,13,01,37,16.60
2014,07,13,01,38,16.50
2014,07,13,01,39,16.50
2014,07,13,01,40,16.50
2014,07,13,01,41,16.40
2014,07,13,01,42,16.30
2014,07,13,01,43,16.30
2014,07,13,01,44,16.30
2014,07,13,01,45,16.30
2014,07,13,01,46,16.30
2014,07,13,01,47,16.30
2014,07,13,01,48,16.20
2014,07,13,01,49,16.20
2014,07,13,01,50,16.20
2014,07,13,01,51,16.20
2014,07,13,01,52,16.30
2014,07,13,01,53,16.30
2014,07,13,01,54,16.40
2014,07,13,01,55,16.40
2014,07,13,01,56,16.50
2014,07,13,01,57,16.60
2014,07,13,01,58,16.70
2014,07,13,01,59,16.70
2014,07,13,02,00,16.70
2014,07,13,02,01,16.80
2014,07,13,02,02,16.80
2014,07,13,02,03,16.80
2014,07,13,02,04,16.80
2014,07,13,02,05,16.80
2014,07,13,02,06,16.80
2014,07,13,02,07,16.70
2014,07,13,02,08,16.70
2014,07,13,02,09,16.70
2014,07,13,02,10,16.70
2014,07,13,02,11,16.70
2014,07,13,02,12,16.70
2014,07,13,02,13,16.60
2014,07,13,02,14,16.60
2014,07,13,02,15,16.50
2014,07,13,02,16,16.50
2014,07,13,02,17,16.40
2014,07,13,02,18,16.40
2014,07,13,02,19,16.30
2014,07,13,02,20,16.20
2014,07,13,02,21,16.20
2014,07,13,02,22,16.10
2014,07,13,02,23,16.10
2014,07,13,02,24,16.00
2014,07,13,02,25,16.00
2014,07,13,02,26,16.00
2014,07,13,02,27,16.00
2014,07,13,02,28,16.10
2014,07,13,02,29,16.10
2014,07,13,02,30,16.10
2014,07,13,02,31,16.20
2014,07,13,02,32,16.20
2014,07,13,02,33,16.20
2014,07,13,02,34,16.10
2014,07,13,02,35,16.20
2014,07,13,02,36,16.20
2014,07,13,02,37,16.20
2014,07,13,02,38,16.20
2014,07,13,02,39,16.20
2014,07,13,02,40,16.20
2014,07,13,02,41,16.30
2014,07,13,02,42,16.30
2014,07,13,02,43,16.30
2014,07,13,02,44,16.30
2014,07,13,02,45,16.30
2014,07,13,02,46,16.30
2014,07,13,02,47,16.30
2014,07,13,02,48,16.30
2014,07,13,02,49,16.30
2014,07,13,02,50,16.30
2014,07,13,02,51,16.20
2014,07,13,02,52,16.20
2014,07,13,02,53,16.10
2014,07,13,02,54,16.10
2014,07,13,02,55,16.10
2014,07,13,02,56,16.10
2014,07,13,02,57,16.10
2014,07,13,02,58,16.10
2014,07,13,02,59,16.10
2014,07,13,03,00,16.10
2014,07,13,03,01,16.10
2014,07,13,03,02,16.00
2014,07,13,03,03,16.00
2014,07,13,03,04,15.90
2014,07,13,03,05,15.80
2014,07,13,03,06,15.70
2014,07,13,03,07,15.60
2014,07,13,03,08,15.50
2014,07,13,03,09,15.50
2014,07,13,03,10,15.40
2014,07,13,03,11,15.40
2014,07,13,03,12,15.40
2014,07,13,03,13,15.40
2014,07,13,03,14,15.50
2014,07,13,03,15,15.50
2014,07,13,03,16,15.50
2014,07,13,03,17,15.60
2014,07,13,03,18,15.60
2014,07,13,03,19,15.50
2014,07,13,03,20,15.50
2014,07,13,03,21,15.40
2014,07,13,03,22,15.40
2014,07,13,03,23,15.40
2014,07,13,03,24,15.30
2014,07,13,03,25,15.30
2014,07,13,03,26,15.20
2014,07,13,03,27,15.20
2014,07,13,03,28,15.20
2014,07,13,03,29,15.20
2014,07,13,03,30,15.20
2014,07,13,03,31,15.20
2014,07,13,03,32,15.20
2014,07,13,03,33,15.20
2014,07,13,03,34,15.20
2014,07,13,03,35,15.20
2014,07,13,03,36,15.20
2014,07,13,03,37,15.30
2014,07,13,03,38,15.30
2014,07,13,03,39,15.30
2014,07,13,03,40,15.30
2014,07,13,03,41,15.40
2014,07,13,03,42,15.40
2014,07,13,03,43,15.40
2014,07,13,03,44,15.40
2014,07,13,03,45,15.30
2014,07,13,03,46,15.30
2014,07,13,03,47,15.20
2014,07,13,03,48,15.20
2014,07,13,03,49,15.20
2014,07,13,03,50,15.10
2014,07,13,03,51,15.10
2014,07,13,03,52,15.00
2014,07,13,03,53,15.00
2014,07,13,03,54,15.00
2014,07,13,03,55,14.90
2014,07,13,03,56,14.90
2014,07,13,03,57,14.90
2014,07,13,03,58,14.80
2014,07,13,03,59,14.80
2014,07,13,04,00,14.80
2014,07,13,04,01,14.70
2014,07,13,04,02,14.70
2014,07,13,04,03,14.70
2014,07,13,04,04,14.60
2014,07,13,04,05,14.60
2014,07,13,04,06,14.60
2014,07,13,04,07,14.60
2014,07,13,04,08,14.60
2014,07,13,04,09,14.60
2014,07,13,04,10,14.70
2014,07,13,04,11,14.70
2014,07,13,04,12,14.70
2014,07,13,04,13,14.80
2014,07,13,04,14,14.80
2014,07,13,04,15,14.80
2014,07,13,04,16,14.70
2014,07,13,04,17,14.70
2014,07,13,04,18,14.70
2014,07,13,04,19,14.60
2014,07,13,04,20,14.50
2014,07,13,04,21,14.40
2014,07,13,04,22,14.40
2014,07,13,04,23,14.30
2014,07,13,04,24,14.30
2014,07,13,04,25,14.20
2014,07,13,04,26,14.20
2014,07,13,04,27,14.20
2014,07,13,04,28,14.20
2014,07,13,04,29,14.10
2014,07,13,04,30,14.10
2014,07,13,04,31,14.10
2014,07,13,04,32,14.10
2014,07,13,04,33,14.10
2014,07,13,04,34,14.10
2014,07,13,04,35,14.10
2014,07,13,04,36,14.10
2014,07,13,04,37,14.10
2014,07,13,04,38,14.20
2014,07,13,04,39,14.30
2014,07,13,04,40,14.40
2014,07,13,04,41,14.50
2014,07,13,04,42,14.60
2014,07,13,04,43,14.70
2014,07,13,04,44,14.70
2014,07,13,04,45,14.80
2014,07,13,04,46,14.80
2014,07,13,04,47,14.90
2014,07,13,04,48,14.90
2014,07,13,04,49,15.00
2014,07,13,04,50,15.00
2014,07,13,04,51,15.00
2014,07,13,04,52,15.10
2014,07,13,04,53,15.10
2014,07,13,04,54,15.10
2014,07,13,04,55,15.10
2014,07,13,04,56,15.00
2014,07,13,04,57,15.00
2014,07,13,04,58,14.90
2014,07,13,04,59,14.90
2014,07,13,05,00,14.80
2014,07,13,05,01,14.70
2014,07,13,05,02,14.70
2014,07,13,05,03,14.70
2014,07,13,05,04,14.60
2014,07,13,05,05,14.60
2014,07,13,05,06,14.60
2014,07,13,05,07,14.60
2014,07,13,05,08,14.60
2014,07,13,05,09,14.50
2014,07,13,05,10,14.50
2014,07,13,05,11,14.40
2014,07,13,05,12,14.40
2014,07,13,05,13,14.40
2014,07,13,05,14,14.40
2014,07,13,05,15,14.30
2014,07,13,05,16,14.30
2014,07,13,05,17,14.30
2014,07,13,05,18,14.30
2014,07,13,05,19,14.30
2014,07,13,05,20,14.20
2014,07,13,05,21,14.20
2014,07,13,05,22,14.20
2014,07,13,05,23,14.20
2014,07,13,05,24,14.20
2014,07,13,05,25,14.30
2014,07,13,05,26,14.30
2014,07,13,05,27,14.30
2014,07,13,05,28,14.30
2014,07,13,05,29,14.30
2014,07,13,05,30,14.30
2014,07,13,05,31,14.30
2014,07,13,05,32,14.30
2014,07,13,05,33,14.30
2014,07,13,05,34,14.30
2014,07,13,05,35,14.40
2014,07,13,05,36,14.40
2014,07,13,05,37,14.40
2014,07,13,05,38,14.40
2014,07,13,05,39,14.40
2014,07,13,05,40,14.40
2014,07,13,05,41,14.50
2014,07,13,05,42,14.50
2014,07,13,05,43,14.40
2014,07,13,05,44,14.40
2014,07,13,05,45,14.40
2014,07,13,05,46,14.30
2014,07,13,05,47,14.30
2014,07,13,05,48,14.30
2014,07,13,05,49,14.40
2014,07,13,05,50,14.40
2014,07,13,05,51,14.40
2014,07,13,05,52,14.40
2014,07,13,05,53,14.40
2014,07,13,05,54,14.40
2014,07,13,05,55,14.40
2014,07,13,05,56,14.40
2014,07,13,05,57,14.30
2014,07,13,05,58,14.40
2014,07,13,05,59,14.40
2014,07,13,06,00,14.50
2014,07,13,06,01,14.50
2014,07,13,06,02,14.60
2014,07,13,06,03,14.60
2014,07,13,06,04,14.70
2014,07,13,06,05,14.70
2014,07,13,06,06,14.70
2014,07,13,06,07,14.70
2014,07,13,06,08,14.70
2014,07,13,06,09,14.70
2014,07,13,06,10,14.70
2014,07,13,06,11,14.70
2014,07,13,06,12,14.80
2014,07,13,06,13,14.80
2014,07,13,06,14,14.80
2014,07,13,06,15,14.80
2014,07,13,06,16,14.80
2014,07,13,06,17,14.80
2014,07,13,06,18,14.80
2014,07,13,06,19,14.80
2014,07,13,06,20,14.80
2014,07,13,06,21,14.80
2014,07,13,06,22,14.90
2014,07,13,06,23,14.90
2014,07,13,06,24,14.90
2014,07,13,06,25,14.90
2014,07,13,06,26,14.90
2014,07,13,06,27,14.90
2014,07,13,06,28,15.00
2014,07,13,06,29,15.00
2014,07,13,06,30,15.00
2014,07,13,06,31,15.10
2014,07,13,06,32,15.10
2014,07,13,06,33,15.10
2014,07,13,06,34,15.20
2014,07,13,06,35,15.20
2014,07,13,06,36,15.20
2014,07,13,06,37,15.30
2014,07,13,06,38,15.30
2014,07,13,06,39,15.40
2014,07,13,06,40,15.40
2014,07,13,06,41,15.40
2014,07,13,06,42,15.50
2014,07,13,06,43,15.50
2014,07,13,06,44,15.50
2014,07,13,06,45,15.60
2014,07,13,06,46,15.60
2014,07,13,06,47,15.60
2014,07,13,06,48,15.60
2014,07,13,06,49,15.70
2014,07,13,06,50,15.70
2014,07,13,06,51,15.70
2014,07,13,06,52,15.70
2014,07,13,06,53,15.80
2014,07,13,06,54,15.80
2014,07,13,06,55,15.80
2014,07,13,06,56,15.80
2014,07,13,06,57,15.80
2014,07,13,06,58,15.90
2014,07,13,06,59,15.90
2014,07,13,07,00,15.90
2014,07,13,07,01,15.90
2014,07,13,07,02,15.90
2014,07,13,07,03,15.90
2014,07,13,07,04,15.90
2014,07,13,07,05,16.00
2014,07,13,07,06,16.00
2014,07,13,07,07,16.00
2014,07,13,07,08,15.90
2014,07,13,07,09,15.90
2014,07,13,07,10,15.90
2014,07,13,07,11,15.90
2014,07,13,07,12,15.90
2014,07,13,07,13,15.90
2014,07,13,07,14,16.00
2014,07,13,07,15,16.00
2014,07,13,07,16,16.10
2014,07,13,07,17,16.10
2014,07,13,07,18,16.10
2014,07,13,07,19,16.20
2014,07,13,07,20,16.20
2014,07,13,07,21,16.20
2014,07,13,07,22,16.20
2014,07,13,07,23,16.30
2014,07,13,07,24,16.30
2014,07,13,07,25,16.30
2014,07,13,07,26,16.40
2014,07,13,07,27,16.40
2014,07,13,07,28,16.40
2014,07,13,07,29,16.40
2014,07,13,07,30,16.50
2014,07,13,07,31,16.50
2014,07,13,07,32,16.60
2014,07,13,07,33,16.60
2014,07,13,07,34,16.60
2014,07,13,07,35,16.60
2014,07,13,07,36,16.60
2014,07,13,07,37,16.60
2014,07,13,07,38,16.60
2014,07,13,07,39,16.60
2014,07,13,07,40,16.70
2014,07,13,07,41,16.70
2014,07,13,07,42,16.70
2014,07,13,07,43,16.70
2014,07,13,07,44,16.70
2014,07,13,07,45,16.70
2014,07,13,07,46,16.70
2014,07,13,07,47,16.70
2014,07,13,07,48,16.70
2014,07,13,07,49,16.70
2014,07,13,07,50,16.70
2014,07,13,07,51,16.60
2014,07,13,07,52,16.70
2014,07,13,07,53,16.70
2014,07,13,07,54,16.70
2014,07,13,07,55,16.70
2014,07,13,07,56,16.70
2014,07,13,07,57,16.70
2014,07,13,07,58,16.70
2014,07,13,07,59,16.70
2014,07,13,08,00,16.80
2014,07,13,08,01,16.80
2014,07,13,08,02,16.70
2014,07,13,08,03,16.70
2014,07,13,08,04,16.70
2014,07,13,08,05,16.70
2014,07,13,08,06,16.70
2014,07,13,08,07,16.70
2014,07,13,08,08,16.70
2014,07,13,08,09,16.70
2014,07,13,08,10,16.70
2014,07,13,08,11,16.70
2014,07,13,08,12,16.70
2014,07,13,08,13,16.80
2014,07,13,08,14,16.80
2014,07,13,08,15,16.80
2014,07,13,08,16,16.80
2014,07,13,08,17,16.80
2014,07,13,08,18,16.80
2014,07,13,08,19,16.90
2014,07,13,08,20,16.90
2014,07,13,08,21,16.90
2014,07,13,08,22,16.90
2014,07,13,08,23,16.90
2014,07,13,08,24,16.90
2014,07,13,08,25,16.90
2014,07,13,08,26,17.00
2014,07,13,08,27,17.00
2014,07,13,08,28,17.10
2014,07,13,08,29,17.10
2014,07,13,08,30,17.20
2014,07,13,08,31,17.20
2014,07,13,08,32,17.30
2014,07,13,08,33,17.40
2014,07,13,08,34,17.50
2014,07,13,08,35,17.60
2014,07,13,08,36,17.70
2014,07,13,08,37,17.70
2014,07,13,08,38,17.80
2014,07,13,08,39,17.80
2014,07,13,08,40,17.80
2014,07,13,08,41,17.90
2014,07,13,08,42,17.90
2014,07,13,08,43,17.90
2014,07,13,08,44,17.90
2014,07,13,08,45,18.00
2014,07,13,08,46,18.00
2014,07,13,08,47,18.10
2014,07,13,08,48,18.20
2014,07,13,08,49,18.20
2014,07,13,08,50,18.20
2014,07,13,08,51,18.30
2014,07,13,08,52,18.30
2014,07,13,08,53,18.40
2014,07,13,08,54,18.40
2014,07,13,08,55,18.40
2014,07,13,08,56,18.40
2014,07,13,08,57,18.40
2014,07,13,08,58,18.40
2014,07,13,08,59,18.50
2014,07,13,09,00,18.50
2014,07,13,09,01,18.50
2014,07,13,09,02,18.50
2014,07,13,09,03,18.50
2014,07,13,09,04,18.50
2014,07,13,09,05,18.50
2014,07,13,09,06,18.60
2014,07,13,09,07,18.60
2014,07,13,09,08,18.70
2014,07,13,09,09,18.70
2014,07,13,09,10,18.70
2014,07,13,09,11,18.70
2014,07,13,09,12,18.70
2014,07,13,09,13,18.70
2014,07,13,09,14,18.70
2014,07,13,09,15,18.70
2014,07,13,09,16,18.70
2014,07,13,09,17,18.70
2014,07,13,09,18,18.80
2014,07,13,09,19,18.90
2014,07,13,09,20,18.90
2014,07,13,09,21,18.90
2014,07,13,09,22,18.80
2014,07,13,09,23,18.80
2014,07,13,09,24,18.80
2014,07,13,09,25,18.80
2014,07,13,09,26,18.90
2014,07,13,09,27,18.90
2014,07,13,09,28,18.90
2014,07,13,09,29,19.00
2014,07,13,09,30,19.00
2014,07,13,09,31,19.00
2014,07,13,09,32,19.00
2014,07,13,09,33,19.10
2014,07,13,09,34,19.10
2014,07,13,09,35,19.20
2014,07,13,09,36,19.20
2014,07,13,09,37,19.30
2014,07,13,09,38,19.30
2014,07,13,09,39,19.30
2014,07,13,09,40,19.20
2014,07,13,09,41,19.10
2014,07,13,09,42,19.10
2014,07,13,09,43,19.10
2014,07,13,09,44,19.10
2014,07,13,09,45,19.10
2014,07,13,09,46,19.10
2014,07,13,09,47,19.10
2014,07,13,09,48,19.10
2014,07,13,09,49,19.10
2014,07,13,09,50,19.10
2014,07,13,09,51,19.20
2014,07,13,09,52,19.20
2014,07,13,09,53,19.20
2014,07,13,09,54,19.30
2014,07,13,09,55,19.30
2014,07,13,09,56,19.30
2014,07,13,09,57,19.30
2014,07,13,09,58,19.30
2014,07,13,09,59,19.30
2014,07,13,10,00,19.40
2014,07,13,10,01,19.40
2014,07,13,10,02,19.40
2014,07,13,10,03,19.40
2014,07,13,10,04,19.40
2014,07,13,10,05,19.40
2014,07,13,10,06,19.40
2014,07,13,10,07,19.40
2014,07,13,10,08,19.50
2014,07,13,10,09,19.50
2014,07,13,10,10,19.60
2014,07,13,10,11,19.60
2014,07,13,10,12,19.60
2014,07,13,10,13,19.70
2014,07,13,10,14,19.70
2014,07,13,10,15,19.70
2014,07,13,10,16,19.70
2014,07,13,10,17,19.80
2014,07,13,10,18,19.90
2014,07,13,10,19,19.90
2014,07,13,10,20,19.90
2014,07,13,10,21,20.00
2014,07,13,10,22,20.10
2014,07,13,10,23,20.10
2014,07,13,10,24,20.10
2014,07,13,10,25,20.20
2014,07,13,10,26,20.30
2014,07,13,10,27,20.40
2014,07,13,10,28,20.50
2014,07,13,10,29,20.60
2014,07,13,10,30,20.70
2014,07,13,10,31,20.80
2014,07,13,10,32,20.90
2014,07,13,10,33,21.00
2014,07,13,10,34,21.00
2014,07,13,10,35,21.00
2014,07,13,10,36,21.10
2014,07,13,10,37,21.10
2014,07,13,10,38,21.20
2014,07,13,10,39,21.30
2014,07,13,10,40,21.40
2014,07,13,10,41,21.50
2014,07,13,10,42,21.50
2014,07,13,10,43,21.50
2014,07,13,10,44,21.50
2014,07,13,10,45,21.50
2014,07,13,10,46,21.60
2014,07,13,10,47,21.60
2014,07,13,10,48,21.70
2014,07,13,10,49,21.80
2014,07,13,10,50,21.80
2014,07,13,10,51,21.80
2014,07,13,10,52,21.80
2014,07,13,10,53,21.70
2014,07,13,10,54,21.70
2014,07,13,10,55,21.80
2014,07,13,10,56,21.80
2014,07,13,10,57,21.80
2014,07,13,10,58,21.80
2014,07,13,10,59,21.80
2014,07,13,11,00,21.90
2014,07,13,11,01,21.90
2014,07,13,11,02,22.00
2014,07,13,11,03,22.00
2014,07,13,11,04,22.00
2014,07,13,11,05,22.00
2014,07,13,11,06,22.00
2014,07,13,11,07,22.00
2014,07,13,11,08,22.00
2014,07,13,11,09,22.10
2014,07,13,11,10,22.10
2014,07,13,11,11,22.10
2014,07,13,11,12,22.00
2014,07,13,11,13,21.90
2014,07,13,11,14,21.70
2014,07,13,11,15,21.60
2014,07,13,11,16,21.40
2014,07,13,11,17,21.30
2014,07,13,11,18,21.30
2014,07,13,11,19,21.40
2014,07,13,11,20,21.40
2014,07,13,11,21,21.50
2014,07,13,11,22,21.50
2014,07,13,11,23,21.60
2014,07,13,11,24,21.60
2014,07,13,11,25,21.60
2014,07,13,11,26,21.70
2014,07,13,11,27,21.70
2014,07,13,11,28,21.80
2014,07,13,11,29,21.80
2014,07,13,11,30,21.80
2014,07,13,11,31,21.80
2014,07,13,11,32,21.80
2014,07,13,11,33,21.80
2014,07,13,11,34,21.80
2014,07,13,11,35,21.90
2014,07,13,11,36,22.00
2014,07,13,11,37,22.10
2014,07,13,11,38,22.20
2014,07,13,11,39,22.30
2014,07,13,11,40,22.30
2014,07,13,11,41,22.30
2014,07,13,11,42,22.30
2014,07,13,11,43,22.30
2014,07,13,11,44,22.40
2014,07,13,11,45,22.40
2014,07,13,11,46,22.50
2014,07,13,11,47,22.50
2014,07,13,11,48,22.60
2014,07,13,11,49,22.70
2014,07,13,11,50,22.80
2014,07,13,11,51,22.80
2014,07,13,11,52,22.90
2014,07,13,11,53,22.90
2014,07,13,11,54,23.00
2014,07,13,11,55,23.10
2014,07,13,11,56,23.20
2014,07,13,11,57,23.30
2014,07,13,11,58,23.40
2014,07,13,11,59,23.50
2014,07,13,12,00,23.60
2014,07,13,12,01,23.70
2014,07,13,12,02,23.80
2014,07,13,12,03,23.90
2014,07,13,12,04,24.10
2014,07,13,12,05,24.20
2014,07,13,12,06,24.40
2014,07,13,12,07,24.50
2014,07,13,12,08,24.60
2014,07,13,12,09,24.70
2014,07,13,12,10,24.80
2014,07,13,12,11,25.00
2014,07,13,12,12,25.10
2014,07,13,12,13,25.20
2014,07,13,12,14,25.40
2014,07,13,12,15,25.50
2014,07,13,12,16,25.60
2014,07,13,12,17,25.60
2014,07,13,12,18,25.60
2014,07,13,12,19,25.50
2014,07,13,12,20,25.40
2014,07,13,12,21,25.40
2014,07,13,12,22,25.40
2014,07,13,12,23,25.40
2014,07,13,12,24,25.40
2014,07,13,12,25,25.40
2014,07,13,12,26,25.50
2014,07,13,12,27,25.50
2014,07,13,12,28,25.60
2014,07,13,12,29,25.70
2014,07,13,12,30,25.80
2014,07,13,12,31,25.90
2014,07,13,12,32,26.00
2014,07,13,12,33,26.10
2014,07,13,12,34,26.20
2014,07,13,12,35,26.30
2014,07,13,12,36,26.40
2014,07,13,12,37,26.40
2014,07,13,12,38,26.40
2014,07,13,12,39,26.50
2014,07,13,12,40,26.60
2014,07,13,12,41,26.60
2014,07,13,12,42,26.60
2014,07,13,12,43,26.70
2014,07,13,12,44,26.80
2014,07,13,12,45,26.70
2014,07,13,12,46,26.60
2014,07,13,12,47,26.50
2014,07,13,12,48,26.40
2014,07,13,12,49,26.30
2014,07,13,12,50,26.30
2014,07,13,12,51,26.30
2014,07,13,12,52,26.30
2014,07,13,12,53,26.20
2014,07,13,12,54,26.20
2014,07,13,12,55,26.30
2014,07,13,12,56,26.30
2014,07,13,12,57,26.30
2014,07,13,12,58,26.30
2014,07,13,12,59,26.30
2014,07,13,13,00,26.20
2014,07,13,13,01,26.20
2014,07,13,13,02,26.30
2014,07,13,13,03,26.30
2014,07,13,13,04,26.40
2014,07,13,13,05,26.40
2014,07,13,13,06,26.40
2014,07,13,13,07,26.50
2014,07,13,13,08,26.60
2014,07,13,13,09,26.60
2014,07,13,13,10,26.70
2014,07,13,13,11,26.80
2014,07,13,13,12,26.90
2014,07,13,13,13,27.00
2014,07,13,13,14,27.10
2014,07,13,13,15,27.20
2014,07,13,13,16,27.30
2014,07,13,13,17,27.30
2014,07,13,13,18,27.30
2014,07,13,13,19,27.30
2014,07,13,13,20,27.20
2014,07,13,13,21,27.20
2014,07,13,13,22,27.10
2014,07,13,13,23,27.00
2014,07,13,13,24,27.00
2014,07,13,13,25,27.00
2014,07,13,13,26,26.90
2014,07,13,13,27,26.90
2014,07,13,13,28,26.90
2014,07,13,13,29,26.80
2014,07,13,13,30,26.70
2014,07,13,13,31,26.60
2014,07,13,13,32,26.50
2014,07,13,13,33,26.50
2014,07,13,13,34,26.40
2014,07,13,13,35,26.40
2014,07,13,13,36,26.40
2014,07,13,13,37,26.30
2014,07,13,13,38,26.30
2014,07,13,13,39,26.30
2014,07,13,13,40,26.30
2014,07,13,13,41,26.30
2014,07,13,13,42,26.30
2014,07,13,13,43,26.30
2014,07,13,13,44,26.40
2014,07,13,13,45,26.40
2014,07,13,13,46,26.50
2014,07,13,13,47,26.50
2014,07,13,13,48,26.60
2014,07,13,13,49,26.70
2014,07,13,13,50,26.80
2014,07,13,13,51,26.80
2014,07,13,13,52,26.80
2014,07,13,13,53,26.80
2014,07,13,13,54,26.90
2014,07,13,13,55,26.90
2014,07,13,13,56,26.90
2014,07,13,13,57,26.90
2014,07,13,13,58,26.80
2014,07,13,13,59,26.80
2014,07,13,14,00,26.80
2014,07,13,14,01,26.90
2014,07,13,14,02,26.90
2014,07,13,14,03,26.90
2014,07,13,14,04,26.90
2014,07,13,14,05,27.00
2014,07,13,14,06,27.00
2014,07,13,14,07,27.00
2014,07,13,14,08,27.10
2014,07,13,14,09,27.10
2014,07,13,14,10,27.20
2014,07,13,14,11,27.30
2014,07,13,14,12,27.40
2014,07,13,14,13,27.40
2014,07,13,14,14,27.50
2014,07,13,14,15,27.50
2014,07,13,14,16,27.60
2014,07,13,14,17,27.60
2014,07,13,14,18,27.70
2014,07,13,14,19,27.70
2014,07,13,14,20,27.70
2014,07,13,14,21,27.60
2014,07,13,14,22,27.60
2014,07,13,14,23,27.50
2014,07,13,14,24,27.50
2014,07,13,14,25,27.50
2014,07,13,14,26,27.50
2014,07,13,14,27,27.50
2014,07,13,14,28,27.50
2014,07,13,14,29,27.60
2014,07,13,14,30,27.60
2014,07,13,14,31,27.80
2014,07,13,14,32,27.90
2014,07,13,14,33,28.00
2014,07,13,14,34,28.20
2014,07,13,14,35,28.40
2014,07,13,14,36,28.60
2014,07,13,14,37,28.70
2014,07,13,14,38,28.90
2014,07,13,14,39,29.00
2014,07,13,14,40,29.10
2014,07,13,14,41,29.20
2014,07,13,14,42,29.40
2014,07,13,14,43,29.40
2014,07,13,14,44,29.50
2014,07,13,14,45,29.60
2014,07,13,14,46,29.60
2014,07,13,14,47,29.60
2014,07,13,14,48,29.70
2014,07,13,14,49,29.70
2014,07,13,14,50,29.80
2014,07,13,14,51,29.90
2014,07,13,14,52,30.00
2014,07,13,14,53,30.00
2014,07,13,14,54,30.00
2014,07,13,14,55,30.00
2014,07,13,14,56,30.10
2014,07,13,14,57,30.30
2014,07,13,14,58,30.50
2014,07,13,14,59,30.70
2014,07,13,15,00,30.80
2014,07,13,15,01,31.00
2014,07,13,15,02,31.00
2014,07,13,15,03,31.10
2014,07,13,15,04,31.10
2014,07,13,15,05,31.20
2014,07,13,15,06,31.10
2014,07,13,15,07,31.10
2014,07,13,15,08,31.00
2014,07,13,15,09,31.00
2014,07,13,15,10,31.10
2014,07,13,15,11,31.10
2014,07,13,15,12,31.10
2014,07,13,15,13,31.00
2014,07,13,15,14,31.00
2014,07,13,15,15,31.00
2014,07,13,15,16,30.90
2014,07,13,15,17,30.90
2014,07,13,15,18,30.90
2014,07,13,15,19,30.90
2014,07,13,15,20,31.00
2014,07,13,15,21,30.90
2014,07,13,15,22,30.90
2014,07,13,15,23,30.90
2014,07,13,15,24,30.90
2014,07,13,15,25,30.80
2014,07,13,15,26,30.80
2014,07,13,15,27,30.70
2014,07,13,15,28,30.70
2014,07,13,15,29,30.70
2014,07,13,15,30,30.60
2014,07,13,15,31,30.60
2014,07,13,15,32,30.60
2014,07,13,15,33,30.60
2014,07,13,15,34,30.60
2014,07,13,15,35,30.60
2014,07,13,15,36,30.60
2014,07,13,15,37,30.60
2014,07,13,15,38,30.50
2014,07,13,15,39,30.50
2014,07,13,15,40,30.60
2014,07,13,15,41,30.60
2014,07,13,15,42,30.70
2014,07,13,15,43,30.70
2014,07,13,15,44,30.80
2014,07,13,15,45,30.90
2014,07,13,15,46,30.90
2014,07,13,15,47,31.00
2014,07,13,15,48,31.00
2014,07,13,15,49,31.10
2014,07,13,15,50,31.10
2014,07,13,15,51,31.20
2014,07,13,15,52,31.30
2014,07,13,15,53,31.40
2014,07,13,15,54,31.40
2014,07,13,15,55,31.50
2014,07,13,15,56,31.50
2014,07,13,15,57,31.50
2014,07,13,15,58,31.50
2014,07,13,15,59,31.40
2014,07,13,16,00,31.30
2014,07,13,16,01,31.20
2014,07,13,16,02,31.00
2014,07,13,16,03,30.90
2014,07,13,16,04,30.80
2014,07,13,16,05,30.70
2014,07,13,16,06,30.70
2014,07,13,16,07,30.60
2014,07,13,16,08,30.50
2014,07,13,16,09,30.40
2014,07,13,16,10,30.40
2014,07,13,16,11,30.40
2014,07,13,16,12,30.40
2014,07,13,16,13,30.40
2014,07,13,16,14,30.50
2014,07,13,16,15,30.50
2014,07,13,16,16,30.60
2014,07,13,16,17,30.60
2014,07,13,16,18,30.60
2014,07,13,16,19,30.70
2014,07,13,16,20,30.70
2014,07,13,16,21,30.80
2014,07,13,16,22,30.80
2014,07,13,16,23,30.90
2014,07,13,16,24,31.00
2014,07,13,16,25,31.10
2014,07,13,16,26,31.30
2014,07,13,16,27,31.40
2014,07,13,16,28,31.50
2014,07,13,16,29,31.60
2014,07,13,16,30,31.70
2014,07,13,16,31,31.70
2014,07,13,16,32,31.80
2014,07,13,16,33,31.80
2014,07,13,16,34,31.80
2014,07,13,16,35,31.80
2014,07,13,16,36,31.90
2014,07,13,16,37,31.90
2014,07,13,16,38,31.90
2014,07,13,16,39,31.90
2014,07,13,16,40,31.90
2014,07,13,16,41,31.80
2014,07,13,16,42,31.80
2014,07,13,16,43,31.80
2014,07,13,16,44,31.70
2014,07,13,16,45,31.70
2014,07,13,16,46,31.70
2014,07,13,16,47,31.70
2014,07,13,16,48,31.80
2014,07,13,16,49,31.80
2014,07,13,16,50,31.90
2014,07,13,16,51,32.00
2014,07,13,16,52,32.00
2014,07,13,16,53,32.00
2014,07,13,16,54,31.90
2014,07,13,16,55,31.90
2014,07,13,16,56,31.90
2014,07,13,16,57,31.90
2014,07,13,16,58,32.00
2014,07,13,16,59,32.10
2014,07,13,17,00,32.20
2014,07,13,17,01,32.20
2014,07,13,17,02,32.30
2014,07,13,17,03,32.40
2014,07,13,17,04,32.40
2014,07,13,17,05,32.50
2014,07,13,17,06,32.60
2014,07,13,17,07,32.60
2014,07,13,17,08,32.70
2014,07,13,17,09,32.80
2014,07,13,17,10,32.80
2014,07,13,17,11,32.80
2014,07,13,17,12,32.80
2014,07,13,17,13,32.80
2014,07,13,17,14,32.70
2014,07,13,17,15,32.70
2014,07,13,17,16,32.70
2014,07,13,17,17,32.70
2014,07,13,17,18,32.70
2014,07,13,17,19,32.70